Weather Roundup
Issued by NWS Chicago, IL

Home | Current Version | Previous Version | Text Only | Print | Product List | Glossary Off
Versions: 1 2 3 4 5 6 7 8 9 10 11 12 13 14 15 16 17 18 19 20 21 22 23 24 25 26 27 28 29 30 31 32 33 34 35 36 37 38 39 40 41 42 43 44 45 46 47 48 49 50

000
NZUS59 KLOT 281108
HRRLOT

CHICAGO AREA WEATHER ROUNDUP
NATIONAL WEATHER SERVICE CHICAGO/ROMEOVILLE IL
600 AM CDT TUE JUL 28 2015

NOTE: "FAIR" INDICATES FEW OR NO CLOUDS BELOW 12,000 FEET WITH NO
SIGNIFICANT WEATHER AND/OR OBSTRUCTIONS TO VISIBILITY.

* THESE STATIONS ARE NOT UNDER NWS QUALITY CONTROL. THEY ALSO MAY NOT
  REPORT WEATHER SUCH AS PRECIPITATION OR FOG.

ILZ005-006-012>014-019>023-281200-
NORTHEAST ILLINOIS

CITY           SKY/WX    TMP DP  RH WIND       PRES   REMARKS
OHARE          PTCLDY    71  66  84 CALM      29.99R
MIDWAY         PTCLDY    74  65  73 SE5       29.99R
AURORA         CLEAR     66  62  87 CALM      29.99S FOG
LANSING*       CLEAR     66  60  80 E3        29.99S
JOLIET*        CLEAR     71  65  79 E6        29.98S
WAUKEGAN       CLEAR     62  62 100 CALM      29.99S FOG
DUPAGE AIRPORT CLEAR     68  64  87 E3        29.98F
WHEELING       CLEAR     68  64  87 CALM      30.00S
KANKAKEE*      PTCLDY    68  65  91 CALM      29.99S
MORRIS*        CLEAR     68  65  89 CALM      29.96S
LEWIS AIRPORT* MOCLDY    69  63  79 SE5       29.99S
NORTHERLY IS     N/A     72  67  84 E3          N/A
$$

WIZ051-052-058>065-066-070>072-281200-
SOUTHEAST WISCONSIN

CITY           SKY/WX    TMP DP  RH WIND       PRES   REMARKS
MILWAUKEE      PTCLDY    67  62  84 CALM      30.00S
KENOSHA*       FOG       60  60 100 NE3       30.00F VSB 1/2
RACINE*        CLEAR     64  61  90 CALM      30.02R
BURLINGTON     FOG       56  56  99 CALM      30.01R VSB 1/4
WAUKESHA       CLEAR     61  61 100 CALM      30.01F
WEST BEND      CLEAR     57  55  94 CALM      30.00F
$$

INZ001>003-010>013-019-020-281200-
NORTHWEST INDIANA

CITY           SKY/WX    TMP DP  RH WIND       PRES   REMARKS
GARY*          CLEAR     70  64  83 SE7       30.00R
MICHIGAN CITY* NOT AVBL
RENSSELAER*    NOT AVBL
VALPARAISO     CLEAR     65  62  90 NE6       30.01S
$$

LMZ740>746-281200-
SOUTHERN LAKE MICHIGAN

STATION/POSITION TIME  SKY/WX   TEMP WIND        PRES    VSBY
                                AIR  DIR/SP/G
                 (UTC)          (F)  (DEG/KT/KT) (MB)    (MI)
HARRISON CRIB    1000            74  140/  8/  9   N/A
BURNHAM HARBOR   1100            73  130/  5       N/A
CALUMET HARBOR   1000            74  100/  4/  5   N/A
BURNS HARBOR     1000            76  130/  8/ 14 1015.9S
MICHIGAN CITY    1000            71  110/  8/ 10   N/A
$$

ABBREVIATIONS USED IN REMARKS
   TC - TEMPERATURE IN CELSIUS
  WCI - WIND CHILL INDEX
   HX - HEAT INDEX
  VSB - VISIBILITY
$$


USA.gov is the U.S. government's official web portal to all federal, state and local government web resources and services.